Satellite: NOAA-11
Catalog number: 19531
Epoch time:      06096.43728125
Element set:      70
Inclination:      098.8253 deg
RA of node:       185.6328 deg
Eccentricity:    0.0011579
Arg of perigee:   189.9670 deg
Mean anomaly:     170.1294 deg
Mean motion:   14.14795399 rev/day
Decay rate:       2.75e-06 rev/day^2
Epoch rev:           90439
Checksum:              337

Satellite: NOAA-12
Catalog number: 21263
Epoch time:      06096.22974519
Element set:     560
Inclination:      098.7293 deg
RA of node:       089.8271 deg
Eccentricity:    0.0012057
Arg of perigee:   300.0637 deg
Mean anomaly:     059.9350 deg
Mean motion:   14.25485973 rev/day
Decay rate:        8.6e-07 rev/day^2
Epoch rev:           77399
Checksum:              334

Satellite: MET-3/5
Catalog number: 21655
Epoch time:      06096.57431989
Element set:      80
Inclination:      082.5545 deg
RA of node:       311.3994 deg
Eccentricity:    0.0012394
Arg of perigee:   217.9670 deg
Mean anomaly:     142.0577 deg
Mean motion:   13.17003979 rev/day
Decay rate:        5.1e-07 rev/day^2
Epoch rev:           70393
Checksum:              317

Satellite: MET-2/21
Catalog number: 22782
Epoch time:      06095.78888241
Element set:    0473
Inclination:      082.5493 deg
RA of node:       028.8805 deg
Eccentricity:    0.0022839
Arg of perigee:   027.1359 deg
Mean anomaly:     333.1010 deg
Mean motion:   13.83601645 rev/day
Decay rate:        1.5e-07 rev/day^2
Epoch rev:           63603
Checksum:              302

Satellite: OKEAN-4
Catalog number: 23317
Epoch time:      06095.78860626
Element set:    0909
Inclination:      082.5431 deg
RA of node:       344.5382 deg
Eccentricity:    0.0020626
Arg of perigee:   253.4885 deg
Mean anomaly:     106.4078 deg
Mean motion:   14.82330492 rev/day
Decay rate:       2.29e-06 rev/day^2
Epoch rev:           61925
Checksum:              312

Satellite: NOAA-14
Catalog number: 23455
Epoch time:      06096.45980715
Element set:      70
Inclination:      099.0449 deg
RA of node:       153.9422 deg
Eccentricity:    0.0008586
Arg of perigee:   252.2617 deg
Mean anomaly:     107.7604 deg
Mean motion:   14.13646876 rev/day
Decay rate:      -1.79e-06 rev/day^2
Epoch rev:           58093
Checksum:              328

Satellite: SICH-1
Catalog number: 23657
Epoch time:      06095.59873242
Element set:    0713
Inclination:      082.5260 deg
RA of node:       125.6011 deg
Eccentricity:    0.0022365
Arg of perigee:   240.5257 deg
Mean anomaly:     119.3710 deg
Mean motion:   14.81328615 rev/day
Decay rate:       1.55e-06 rev/day^2
Epoch rev:           57124
Checksum:              278

Satellite: NOAA-15
Catalog number: 25338
Epoch time:      06096.45304976
Element set:     466
Inclination:      098.5171 deg
RA of node:       100.8993 deg
Eccentricity:    0.0009747
Arg of perigee:   220.5954 deg
Mean anomaly:     139.4491 deg
Mean motion:   14.24570359 rev/day
Decay rate:        4.1e-07 rev/day^2
Epoch rev:           41050
Checksum:              314

Satellite: RESURS
Catalog number: 25394
Epoch time:      06096.75993391
Element set:     337
Inclination:      098.4983 deg
RA of node:       162.0407 deg
Eccentricity:    0.0002215
Arg of perigee:   042.6762 deg
Mean anomaly:     317.4589 deg
Mean motion:   14.24096828 rev/day
Decay rate:       -2.1e-07 rev/day^2
Epoch rev:           40223
Checksum:              307

Satellite: FENGYUN1
Catalog number: 25730
Epoch time:      06095.90451626
Element set:     691
Inclination:      098.6255 deg
RA of node:       091.1946 deg
Eccentricity:    0.0014558
Arg of perigee:   351.0465 deg
Mean anomaly:     009.0459 deg
Mean motion:   14.11808792 rev/day
Decay rate:       1.31e-06 rev/day^2
Epoch rev:           35581
Checksum:              303

Satellite: OKEAN-0
Catalog number: 25860
Epoch time:      06096.49447685
Element set:     713
Inclination:      097.7383 deg
RA of node:       114.1581 deg
Eccentricity:    0.0001358
Arg of perigee:   048.4497 deg
Mean anomaly:     311.6848 deg
Mean motion:   14.73348174 rev/day
Decay rate:        3.6e-07 rev/day^2
Epoch rev:           36119
Checksum:              324

Satellite: NOAA-16
Catalog number: 26536
Epoch time:      06096.45159612
Element set:     830
Inclination:      099.0604 deg
RA of node:       062.2527 deg
Eccentricity:    0.0010163
Arg of perigee:   326.5566 deg
Mean anomaly:     033.4963 deg
Mean motion:   14.12329535 rev/day
Decay rate:       3.26e-06 rev/day^2
Epoch rev:           28545
Checksum:              298

Satellite: NOAA-17
Catalog number: 27453
Epoch time:      06096.49003032
Element set:     851
Inclination:      098.6243 deg
RA of node:       170.0829 deg
Eccentricity:    0.0010830
Arg of perigee:   284.5868 deg
Mean anomaly:     075.4088 deg
Mean motion:   14.23764388 rev/day
Decay rate:        5.0e-07 rev/day^2
Epoch rev:           19657
Checksum:              319

Satellite: NOAA-18
Catalog number: 28654
Epoch time:      06096.08828008
Element set:     431
Inclination:      098.7822 deg
RA of node:       040.9286 deg
Eccentricity:    0.0015311
Arg of perigee:   066.2130 deg
Mean anomaly:     294.0647 deg
Mean motion:   14.10944990 rev/day
Decay rate:       -3.9e-07 rev/day^2
Epoch rev:            4521
Checksum:              300

/EX
SB KEPS @ AMSAT  $ORB06096.M
Orbital Elements  06096.MISC

HR AMSAT ORBITAL ELEMENTS FOR MANNED AND MISCELLANEOUS SATELLITES
FROM WA5QGD FORT WORTH,TX April 6, 2006
Send SUBSCRIBE KEPS/UNSUBSCRIBE KEPS to majordomo@amsat.org only
BID: ORB06096.M
TO ALL RADIO AMATEURS BT

